Total_Precipitation_Accumulation
1.00 1.05 1.03 1.11 1.22 1.48 1.70 1.64 1.46 1.44 1.46 1.42 1.37 1.45 1.59 1.72 1.83 1.96 2.02 2.03 2.06 2.19 2.13 2.09 2.16 2.27 2.52 2.49 2.54 2.53 2.44 2.35 2.32 2.09 1.73 1.73 1.97 2.07 1.98 1.78 1.62 1.61 1.44
0.82 0.86 0.94 0.96 1.07 1.19 1.30 1.32 1.26 1.17 1.13 1.19 1.24 1.26 1.34 1.51 1.62 1.67 1.68 1.72 1.79 1.91 1.98 1.92 1.94 2.01 2.13 2.34 2.45 2.45 2.46 2.40 2.40 2.35 2.01 1.82 1.79 1.92 2.00 1.97 1.72 1.58 1.48
0.76 0.82 0.87 0.89 0.91 0.95 0.97 0.90 0.94 0.95 1.00 1.06 1.18 1.23 1.30 1.38 1.53 1.55 1.53 1.49 1.54 1.61 1.74 1.82 1.86 1.89 1.91 2.04 2.02 2.11 2.25 2.41 2.51 2.43 2.27 2.05 1.88 1.87 1.95 1.92 1.85 1.87 1.63
0.87 0.93 0.96 0.97 0.97 0.97 0.95 0.92 0.93 0.94 0.97 1.09 1.27 1.33 1.34 1.36 1.37 1.42 1.48 1.45 1.34 1.31 1.37 1.42 1.54 1.68 1.71 1.90 1.87 1.87 2.03 2.28 2.56 2.57 2.44 2.20 2.05 2.00 1.97 1.93 1.98 1.96 1.87
0.80 0.90 0.93 0.97 1.00 0.95 0.87 0.83 0.88 0.87 0.86 0.99 1.15 1.31 1.35 1.34 1.30 1.38 1.45 1.47 1.40 1.25 1.20 1.21 1.26 1.40 1.68 1.79 1.75 1.95 2.10 2.15 2.30 2.44 2.43 2.36 2.20 2.03 1.90 1.82 1.89 1.95 1.98
0.70 0.81 0.97 1.01 0.92 0.86 0.77 0.76 0.77 0.76 0.75 0.85 0.99 1.16 1.26 1.24 1.63 1.63 1.45 1.44 1.41 1.27 1.17 1.16 1.12 1.12 1.33 1.63 1.78 1.91 2.04 2.12 2.17 2.21 2.25 2.19 2.14 2.08 2.13 2.08 1.97 1.89 1.87
0.63 0.77 0.97 0.95 0.84 0.78 0.81 0.83 0.79 0.76 0.77 0.83 0.87 0.88 0.98 1.27 1.33 1.12 1.16 1.20 1.32 1.23 1.11 1.03 0.94 0.93 1.08 1.18 1.35 1.46 1.66 1.96 2.17 2.21 2.09 1.96 2.04 2.02 2.06 2.10 2.01 1.93 1.84
0.54 0.65 0.80 0.81 0.79 0.82 0.80 0.77 0.72 0.67 0.65 0.69 0.71 0.76 0.83 0.97 0.98 0.92 1.03 0.97 1.12 1.13 1.03 0.98 0.97 0.96 1.01 1.06 1.20 1.35 1.37 1.46 1.69 1.75 1.76 1.78 1.84 1.99 2.05 2.09 2.16 2.10 2.06
0.40 0.51 0.63 0.63 0.67 0.68 0.66 0.65 0.62 0.58 0.59 0.60 0.64 0.72 0.81 0.81 0.83 0.82 0.89 1.00 1.15 1.11 0.99 0.99 0.97 0.95 1.13 1.19 1.19 1.28 1.38 1.36 1.48 1.66 1.87 1.85 1.76 1.78 1.88 1.93 2.06 2.10 2.08
0.31 0.40 0.51 0.54 0.56 0.56 0.61 0.63 0.62 0.58 0.55 0.55 0.57 0.61 0.69 0.74 0.88 0.74 0.84 1.02 1.15 1.18 1.13 1.03 1.13 1.12 1.23 1.19 1.15 1.30 1.38 1.23 1.16 1.25 1.42 1.47 1.39 1.41 1.61 1.63 1.84 1.99 1.91
0.22 0.29 0.35 0.43 0.51 0.60 0.66 0.66 0.68 0.64 0.59 0.57 0.62 0.62 0.61 0.72 0.87 0.84 0.87 0.95 1.15 1.21 1.24 1.17 1.03 1.08 1.07 1.13 1.20 1.28 1.48 1.33 1.19 1.25 1.37 1.35 1.24 1.23 1.30 1.38 1.52 1.79 1.85
0.17 0.22 0.31 0.39 0.48 0.58 0.69 0.73 0.70 0.68 0.66 0.66 0.66 0.68 0.66 0.65 0.74 0.81 0.85 0.92 1.03 1.07 1.17 1.14 1.06 1.09 0.95 0.95 1.00 1.14 1.42 1.34 1.20 1.23 1.28 1.29 1.24 1.16 1.20 1.22 1.31 1.43 1.57
0.14 0.18 0.25 0.30 0.32 0.40 0.51 0.61 0.66 0.67 0.66 0.65 0.69 0.76 0.78 0.72 0.77 0.89 0.79 0.78 0.86 0.89 0.92 1.02 0.98 0.94 0.86 0.80 0.90 1.02 1.14 1.27 1.29 1.23 1.16 1.15 1.15 1.13 1.18 1.15 1.16 1.24 1.28
0.16 0.18 0.20 0.22 0.22 0.25 0.37 0.44 0.49 0.55 0.60 0.67 0.73 0.81 0.89 0.86 0.79 0.76 0.72 0.71 0.76 0.72 0.67 0.66 0.67 0.71 0.70 0.71 0.77 0.83 0.96 1.16 1.30 1.22 1.10 1.10 1.11 1.11 1.13 1.07 1.08 1.15 1.19
0.15 0.15 0.16 0.18 0.20 0.22 0.28 0.38 0.44 0.49 0.53 0.58 0.66 0.79 0.85 0.84 0.84 0.94 0.93 0.89 0.86 0.83 0.77 0.67 0.61 0.64 0.71 0.76 0.77 0.77 0.85 0.99 1.10 1.10 1.04 0.99 1.02 1.07 1.07 1.01 0.99 1.03 1.09
0.20 0.17 0.16 0.17 0.21 0.23 0.25 0.29 0.31 0.35 0.36 0.38 0.44 0.49 0.56 0.61 0.64 0.64 0.70 0.75 0.75 0.72 0.82 0.84 0.81 0.83 0.82 0.79 0.80 0.76 0.73 0.78 0.91 1.00 1.01 0.96 0.93 0.97 1.02 1.01 1.00 1.03 1.06
0.28 0.26 0.22 0.20 0.22 0.25 0.25 0.25 0.30 0.29 0.26 0.26 0.28 0.35 0.42 0.46 0.46 0.46 0.50 0.56 0.62 0.64 0.78 0.80 0.74 0.69 0.68 0.65 0.67 0.68 0.68 0.68 0.73 0.84 0.91 0.93 0.90 0.93 1.02 1.06 1.06 1.10 1.12
0.18 0.20 0.22 0.24 0.23 0.24 0.30 0.37 0.42 0.46 0.39 0.30 0.27 0.30 0.34 0.38 0.39 0.42 0.46 0.50 0.49 0.50 0.57 0.64 0.61 0.58 0.54 0.54 0.54 0.53 0.55 0.59 0.63 0.70 0.78 0.83 0.89 0.93 0.98 1.04 1.07 1.06 1.08
0.14 0.17 0.25 0.28 0.25 0.26 0.34 0.44 0.50 0.51 0.48 0.38 0.28 0.25 0.25 0.27 0.31 0.36 0.41 0.44 0.44 0.39 0.40 0.48 0.51 0.51 0.48 0.44 0.41 0.41 0.43 0.44 0.48 0.56 0.64 0.71 0.77 0.82 0.87 0.94 0.98 1.04 1.04
0.18 0.22 0.30 0.35 0.30 0.32 0.36 0.36 0.35 0.38 0.38 0.33 0.29 0.27 0.26 0.25 0.26 0.29 0.33 0.36 0.37 0.36 0.37 0.41 0.43 0.43 0.41 0.40 0.39 0.37 0.39 0.41 0.43 0.48 0.56 0.65 0.70 0.71 0.71 0.76 0.86 0.92 0.91
0.24 0.23 0.25 0.34 0.35 0.32 0.32 0.30 0.32 0.35 0.32 0.30 0.28 0.27 0.27 0.26 0.27 0.29 0.30 0.32 0.34 0.36 0.36 0.35 0.37 0.43 0.41 0.39 0.38 0.39 0.40 0.40 0.41 0.45 0.48 0.52 0.57 0.61 0.63 0.65 0.68 0.75 0.81
0.23 0.24 0.24 0.32 0.35 0.30 0.27 0.29 0.31 0.32 0.31 0.29 0.27 0.25 0.25 0.24 0.25 0.28 0.29 0.33 0.35 0.37 0.38 0.36 0.37 0.41 0.45 0.43 0.41 0.42 0.44 0.44 0.43 0.45 0.48 0.49 0.51 0.53 0.56 0.58 0.60 0.64 0.68
0.23 0.23 0.23 0.27 0.28 0.25 0.24 0.26 0.29 0.31 0.30 0.28 0.26 0.26 0.24 0.24 0.24 0.27 0.31 0.38 0.43 0.43 0.39 0.36 0.38 0.43 0.46 0.47 0.46 0.46 0.45 0.45 0.45 0.45 0.49 0.53 0.55 0.57 0.59 0.61 0.61 0.65 0.71
0.24 0.27 0.28 0.29 0.28 0.29 0.32 0.31 0.29 0.29 0.31 0.31 0.29 0.28 0.28 0.26 0.25 0.27 0.32 0.37 0.41 0.41 0.41 0.39 0.38 0.42 0.47 0.51 0.52 0.50 0.47 0.46 0.43 0.43 0.47 0.51 0.53 0.55 0.58 0.61 0.64 0.66 0.72
0.24 0.25 0.26 0.29 0.30 0.32 0.36 0.36 0.32 0.32 0.33 0.36 0.36 0.33 0.32 0.30 0.29 0.28 0.30 0.35 0.36 0.37 0.38 0.40 0.44 0.47 0.49 0.48 0.48 0.51 0.60 0.59 0.51 0.48 0.47 0.51 0.55 0.57 0.61 0.65 0.69 0.72 0.76
0.24 0.24 0.26 0.30 0.32 0.33 0.36 0.38 0.37 0.36 0.37 0.38 0.40 0.42 0.41 0.37 0.34 0.33 0.35 0.38 0.37 0.36 0.39 0.41 0.43 0.45 0.48 0.48 0.45 0.47 0.53 0.51 0.50 0.51 0.49 0.50 0.55 0.60 0.65 0.70 0.73 0.78 0.84